Temp
13 13 13 13 13 13 13 13 13 12 12 12 12 12 12 12 12 12 12 12 12 12 12 12 13 13 12 12 11 10 10 10 10 10 10 10 10 10 10 10 9 9 9 9 9 9 9 9 9 9 9 9 10 10 10 10 9 9 9 9 9 9 9 9 9 9 8 7 7 7 6 6 6 5 5 5 5 4 4 4 4 4 4 4 4
13 13 13 13 13 13 13 13 12 12 12 12 12 13 12 12 12 12 12 12 12 12 12 12 12 13 13 12 11 10 10 10 10 10 10 10 10 10 10 10 10 9 9 9 9 9 9 9 9 9 9 9 9 10 10 10 9 9 9 9 9 9 9 9 9 9 8 7 7 7 6 6 6 5 5 5 5 4 4 4 4 4 4 4 4
13 13 13 13 13 13 13 12 12 12 12 12 12 12 12 12 12 12 12 12 12 12 12 12 12 12 12 12 11 10 10 10 10 10 10 10 10 10 10 10 10 10 9 9 9 9 9 9 9 9 10 10 9 10 10 10 10 10 10 9 9 9 9 9 9 9 8 8 7 6 6 6 6 6 6 6 5 5 4 4 4 4 4 4 4
13 13 13 13 13 13 13 12 12 12 12 12 12 12 12 12 12 12 12 12 12 12 12 12 12 12 12 12 11 10 10 10 10 10 10 10 10 10 11 11 10 10 9 9 9 9 9 9 9 9 10 10 9 9 10 10 10 10 10 10 10 9 9 9 9 9 9 8 7 6 7 6 6 6 6 6 5 5 5 4 4 4 4 4 4
12 12 12 12 12 12 12 12 12 12 12 12 12 12 12 12 12 12 12 12 12 11 11 11 11 11 12 12 11 11 10 10 10 10 10 10 10 10 11 11 11 10 10 9 9 8 9 9 9 9 9 9 9 9 9 10 10 10 10 10 10 9 9 9 9 9 9 8 7 7 6 6 6 6 6 6 6 5 5 5 4 4 4 4 4
12 12 12 12 12 12 12 12 12 12 12 12 12 12 12 11 12 12 12 12 12 11 11 11 11 11 11 11 11 11 11 10 10 10 10 10 10 10 10 11 11 10 10 9 9 9 9 9 9 9 9 9 9 9 9 9 10 10 10 10 10 10 9 9 9 8 8 8 8 7 7 6 6 6 6 6 6 5 5 5 5 5 4 4 4
12 12 11 12 12 12 12 12 12 12 12 12 12 12 12 11 11 11 11 12 12 11 11 11 11 11 11 11 11 11 11 10 10 10 10 10 10 10 10 10 10 10 10 10 9 9 9 9 9 9 9 9 9 9 9 9 10 10 10 10 10 9 9 9 9 8 8 8 7 7 7 7 6 6 6 6 6 5 5 5 5 5 5 5 4
12 12 11 11 12 12 12 12 12 12 12 12 12 11 11 11 11 11 11 11 11 11 11 11 11 11 10 11 11 10 11 11 10 10 10 10 10 10 10 10 10 10 10 10 10 9 9 9 9 9 9 9 9 9 9 9 9 10 10 9 9 9 9 9 9 8 8 8 7 7 7 7 6 6 6 6 6 6 6 5 5 5 5 5 5
12 12 11 11 11 11 11 11 11 11 12 12 11 11 11 11 11 11 11 11 11 11 10 10 10 10 10 10 10 10 10 11 11 10 10 10 10 10 10 10 10 10 10 9 9 9 9 9 9 9 9 9 9 9 9 9 9 9 9 9 9 9 9 9 8 8 8 8 7 7 7 7 7 6 6 6 6 6 6 6 5 5 5 5 5
11 11 11 11 11 11 11 11 11 11 11 11 11 11 11 11 11 11 11 11 11 10 10 10 11 10 10 9 9 10 10 10 10 11 11 10 10 10 10 10 10 10 10 9 9 9 9 9 9 9 9 9 9 9 9 9 9 9 9 9 9 9 9 8 8 8 8 8 8 8 8 7 7 7 7 7 6 6 6 6 5 5 5 5 5
11 11 11 11 10 10 10 10 10 10 10 10 10 10 10 10 10 11 11 11 11 10 10 10 10 11 10 10 9 9 10 10 10 11 11 11 10 10 10 10 10 10 10 9 9 9 9 9 9 9 9 9 9 10 9 9 9 8 9 9 9 9 9 8 8 8 8 8 8 8 8 8 7 7 7 7 6 6 6 6 6 5 6 6 5
10 10 10 10 10 10 10 10 10 10 10 10 10 10 10 10 10 10 10 10 10 10 10 10 10 10 10 10 10 10 10 10 10 11 11 10 10 10 10 10 10 10 10 9 9 9 8 9 9 9 9 9 9 9 9 9 9 8 8 8 9 9 8 8 9 9 8 8 8 8 8 8 8 7 7 7 7 6 6 6 6 6 6 5 5
10 10 10 10 10 10 10 10 10 10 10 10 10 10 10 10 10 10 10 10 10 10 10 10 9 9 9 10 10 10 10 10 10 10 11 11 10 10 10 10 10 10 10 9 9 9 9 9 9 9 9 9 9 9 9 9 9 9 8 8 8 8 8 8 8 8 8 8 8 8 8 8 8 8 7 7 7 6 6 6 6 6 5 5 5
10 9 9 9 9 9 9 9 10 10 10 10 9 10 10 10 10 10 10 9 10 10 10 10 9 9 9 9 10 10 10 10 10 10 10 10 10 10 10 10 10 10 10 9 9 9 9 9 9 9 9 9 9 9 9 9 9 9 8 8 8 8 8 8 8 8 8 8 8 8 8 8 8 8 7 7 7 6 6 6 6 6 5 5 5
9 9 9 9 9 9 9 9 9 9 9 9 9 9 10 9 10 10 10 9 9 10 10 9 9 9 9 9 9 10 9 9 10 10 10 10 10 10 10 10 10 10 10 10 10 10 9 9 9 9 9 9 9 9 9 9 9 8 8 8 8 8 8 8 8 8 8 8 8 8 8 8 8 7 7 7 7 6 6 6 6 5 5 5 6
9 9 8 8 8 8 9 9 9 9 9 9 9 9 9 9 9 10 10 9 9 9 9 9 9 9 9 9 9 9 9 9 9 9 9 9 10 10 10 10 10 10 10 10 10 10 9 9 9 9 9 9 8 8 8 8 8 8 8 8 8 8 8 8 8 8 8 8 8 8 8 8 7 7 7 7 7 6 6 6 6 5 5 5 6
8 8 8 8 8 8 8 8 8 8 8 9 9 9 9 9 9 9 10 9 9 9 9 9 9 9 9 9 9 9 9 9 9 9 9 9 9 9 10 10 9 10 10 10 9 9 9 9 9 9 9 8 8 8 8 8 8 8 8 8 8 8 8 8 8 8 7 7 7 7 7 7 7 7 7 6 6 6 6 6 6 5 5 6 6
7 7 7 7 7 8 8 8 8 8 8 8 8 8 9 9 9 9 9 9 9 9 9 9 9 9 9 9 9 9 9 9 9 9 9 9 9 9 9 9 9 9 9 9 9 9 9 9 9 9 9 8 8 8 8 8 8 8 8 8 8 8 8 8 8 8 7 7 7 7 7 7 7 7 6 6 6 6 6 6 6 6 5 5 5
7 7 7 7 7 7 7 7 7 8 8 8 8 8 8 9 9 9 9 9 9 9 9 9 9 9 8 8 8 9 9 9 9 9 9 9 9 9 9 9 9 9 9 9 9 9 9 9 9 9 9 8 8 8 8 8 8 8 8 8 8 8 8 8 8 8 7 7 7 7 6 6 6 6 6 6 6 5 5 6 6 6 5 5 5
6 7 7 7 7 7 7 7 7 7 7 7 7 7 8 8 8 8 9 9 9 8 8 8 9 9 9 8 8 8 8 8 8 8 9 9 9 9 9 8 9 9 9 9 9 9 9 9 9 9 8 8 8 8 8 8 8 8 8 8 8 8 8 8 8 8 7 7 7 7 6 6 6 6 6 6 6 6 6 6 6 6 6 6 6
6 6 6 6 6 6 6 7 7 7 7 7 7 7 7 7 7 8 8 8 8 8 8 8 9 9 9 8 8 8 8 8 8 8 8 9 9 9 9 9 8 8 9 9 9 9 9 9 9 9 8 8 8 8 8 8 8 8 7 7 7 7 7 7 8 8 8 7 7 7 7 6 6 6 6 6 6 6 6 6 6 6 6 6 6
6 6 6 6 6 6 6 6 6 7 6 6 6 7 7 7 7 7 7 7 8 8 8 8 9 9 8 8 8 8 7 8 8 8 8 8 8 9 9 9 8 8 8 9 9 9 9 9 8 8 8 8 8 8 8 8 8 7 7 7 7 6 6 7 7 8 8 8 7 7 7 7 7 6 6 6 6 6 6 6 6 6 6 6 6
5 5 5 6 6 6 6 6 6 6 6 6 6 6 7 7 6 7 7 7 7 8 8 8 8 8 8 8 8 8 8 8 8 8 8 8 8 8 8 8 8 8 8 8 8 9 9 8 8 8 8 8 8 8 8 8 8 7 7 7 6 6 6 6 7 7 7 7 7 7 7 7 7 6 6 6 6 5 5 5 5 5 6 6 6
5 5 5 6 6 6 5 6 6 6 5 5 5 6 6 6 6 6 6 6 7 7 8 8 7 8 8 8 8 8 8 8 8 8 8 8 8 8 8 8 7 7 7 8 8 8 8 8 8 8 8 8 8 8 8 8 8 7 7 6 6 6 5 6 6 6 6 6 7 7 7 6 6 6 6 6 5 5 5 5 5 5 5 5 5
5 5 5 5 5 5 5 5 5 5 5 5 5 5 5 5 5 6 6 6 6 7 7 7 7 7 8 8 8 8 8 8 8 8 8 8 8 8 8 8 7 7 7 7 7 8 8 8 8 8 8 7 7 7 8 8 8 7 7 6 6 6 5 5 6 6 6 5 5 5 6 5 6 6 6 6 6 5 5 5 5 5 5 5 5
5 5 5 5 5 5 5 5 5 5 5 5 5 5 4 5 5 5 5 6 6 6 6 6 7 7 7 7 8 8 8 8 9 9 8 8 8 8 8 8 7 7 7 7 7 7 7 7 7 7 7 7 7 7 7 8 8 7 7 7 6 6 5 5 5 5 5 5 5 5 5 5 5 5 5 5 5 5 5 4 4 5 5 5 5
5 5 5 5 5 5 5 5 4 4 5 5 5 5 4 4 4 4 5 5 5 5 5 6 6 6 7 7 7 8 8 8 9 9 9 8 8 8 8 8 7 7 7 7 7 7 7 7 7 7 7 7 7 7 7 7 7 7 7 7 7 6 6 5 5 5 5 5 5 5 5 4 4 4 5 5 5 5 5 5 5 5 5 5 5
4 4 5 5 5 4 4 4 4 4 4 4 4 4 4 4 4 4 3 3 4 4 4 5 5 5 6 6 7 7 8 8 8 9 9 9 9 8 8 8 8 7 7 7 7 6 6 7 7 7 7 7 7 7 7 7 7 7 7 7 7 6 6 6 5 5 5 5 4 4 4 4 4 4 4 4 4 4 4 5 5 5 5 5 5
4 4 4 4 4 4 4 4 4 4 4 4 4 4 4 3 3 3 3 3 3 3 4 4 4 5 5 6 6 7 7 7 8 8 9 9 9 8 8 8 8 8 8 8 7 7 6 6 6 7 7 7 7 7 7 7 7 7 7 7 7 7 7 6 6 5 5 5 5 4 5 5 5 5 4 4 4 4 4 5 5 6 6 5 5
3 4 4 3 3 3 3 3 3 3 3 3 3 4 4 4 3 3 3 4 4 3 3 4 4 4 5 5 6 6 6 7 8 8 9 9 9 8 8 8 8 8 8 7 7 7 6 6 6 6 7 7 7 7 7 7 7 7 7 7 7 7 7 7 6 6 5 5 5 4 5 5 5 5 5 4 4 4 4 5 5 6 6 6 6
3 3 3 3 3 2 2 2 3 3 3 2 2 3 4 5 5 4 4 4 5 5 4 4 4 4 4 5 6 7 7 7 8 8 9 9 9 8 8 8 8 8 8 8 7 7 7 7 7 7 7 7 7 7 7 7 7 7 7 7 7 7 7 7 7 6 6 5 5 5 5 5 5 5 5 5 5 5 5 5 5 5 5 5 5
3 3 3 2 2 2 1 2 2 2 2 2 1 1 2 3 4 5 5 5 4 4 4 4 5 5 4 5 6 6 7 7 7 8 8 9 8 8 7 7 7 8 8 8 7 7 7 7 6 7 7 6 7 7 7 7 7 7 7 7 7 7 7 7 7 6 6 6 5 5 5 5 5 5 5 5 5 5 5 5 5 5 5 5 5
2 2 2 2 1 1 0 -0 -1 -1 -1 -1 -1 -1 -1 -1 1 2 4 5 5 4 4 4 4 4 5 5 5 5 6 6 7 7 8 8 8 8 7 7 7 7 7 7 7 7 7 7 6 6 6 6 6 6 7 7 7 6 7 7 7 7 7 7 6 6 6 6 5 5 5 5 5 5 5 5 5 5 5 5 5 5 5 5 4
2 2 1 0 -1 -1 -1 -2 -3 -3 -3 -3 -3 -3 -3 -2 -2 -1 1 3 5 5 5 4 4 4 4 4 4 5 5 5 6 7 7 7 8 8 7 7 6 6 7 7 7 7 7 7 6 6 6 6 6 6 6 6 6 6 6 6 6 6 6 6 6 6 6 6 6 5 5 5 5 5 5 5 5 5 5 5 5 5 5 4 4
2 1 1 -0 -1 -2 -3 -3 -4 -4 -4 -3 -3 -3 -3 -3 -2 -2 -2 -1 1 2 3 3 3 3 3 3 4 4 5 5 5 6 6 7 7 7 7 7 6 6 6 6 6 6 6 6 6 6 6 6 6 6 6 6 6 6 6 6 6 6 6 6 6 6 6 6 6 6 5 5 5 5 5 5 5 5 5 4 4 5 5 4 4
2 1 1 0 -1 -2 -3 -3 -4 -4 -3 -3 -3 -3 -3 -2 -2 -2 -1 -1 -1 -0 0 0 1 2 2 3 4 4 4 5 5 5 6 6 7 7 7 7 6 6 6 6 6 6 6 6 6 6 6 6 5 6 6 6 6 6 6 6 6 6 6 6 6 6 6 6 6 6 6 5 5 4 4 5 5 5 5 4 4 4 5 4 4
2 1 1 0 -0 -1 -2 -3 -3 -3 -3 -3 -2 -2 -2 -2 -1 -1 -1 -1 -0 -0 0 0 0 1 2 3 3 4 4 4 5 5 6 6 6 7 7 7 6 6 6 6 6 6 6 5 5 5 5 5 5 5 6 6 6 6 6 6 6 6 7 7 6 6 6 6 6 6 6 6 5 5 4 4 4 5 5 5 4 4 4 4 4
1 1 0 -0 -1 -1 -1 -2 -2 -2 -2 -2 -2 -2 -2 -2 -1 -1 -1 -0 -0 -0 0 0 0 1 1 2 3 3 4 4 5 6 6 6 6 6 6 6 6 6 6 6 6 6 6 6 5 5 5 5 5 5 6 6 6 6 6 6 6 6 6 6 6 6 6 6 6 6 6 6 5 5 4 4 4 5 5 5 4 4 5 5 5
2 1 0 -0 -0 -1 -1 -2 -2 -2 -1 -1 -1 -1 -1 -1 -1 -1 -1 -0 -0 -0 -0 0 0 0 0 1 2 2 3 4 4 5 5 6 6 6 5 5 6 6 6 6 6 6 6 6 5 5 5 5 5 5 5 5 5 5 5 6 6 6 6 6 6 6 6 6 6 6 6 6 6 5 5 4 4 5 5 5 4 4 5 5 5
1 1 0 0 -0 -1 -1 -1 -2 -1 -1 -1 -1 -1 -1 -1 -1 -1 -1 -1 -0 -0 -1 -1 -0 -0 -0 0 1 1 2 3 3 4 4 5 5 5 5 5 5 5 5 6 6 6 6 6 6 5 5 5 5 5 5 5 5 5 5 5 6 6 6 6 7 7 7 7 7 6 6 6 6 6 5 5 5 5 5 5 5 5 5 5 5
1 0 0 0 -0 -1 -1 -1 -1 -1 -1 -1 -1 -1 -1 -2 -2 -1 -1 -1 -1 -1 -1 -1 -1 -1 -1 -0 0 1 2 2 2 2 3 3 4 4 4 4 4 4 4 5 5 6 6 6 6 5 5 5 5 5 5 5 5 5 5 5 6 6 6 6 6 7 7 7 7 7 6 6 6 6 6 6 5 5 5 5 5 5 5 5 5
0 -0 -0 -0 -0 -1 -1 -1 -1 -1 -1 -1 -1 -1 -1 -2 -2 -2 -2 -2 -2 -1 -1 -1 -1 -1 -1 -0 0 1 2 2 2 2 2 2 2 3 3 3 3 3 3 4 5 5 6 6 6 5 5 5 5 5 5 5 5 5 4 4 5 6 6 6 6 6 7 7 7 7 7 6 6 6 6 6 6 5 5 5 5 5 5 5 5
-0 -1 -0 -0 -1 -1 -1 -1 -1 -1 -2 -2 -2 -2 -2 -2 -2 -2 -2 -2 -2 -2 -1 -1 -1 -1 -1 -1 0 1 1 1 1 2 2 2 2 2 2 2 3 3 3 3 4 4 5 5 5 5 5 5 5 5 5 5 5 5 5 4 5 5 6 6 6 6 6 6 7 7 7 7 7 7 6 6 6 6 5 5 5 5 5 5 5
-0 -1 -1 -1 -1 -2 -2 -2 -2 -2 -3 -3 -2 -2 -2 -2 -2 -2 -3 -2 -2 -2 -2 -2 -2 -1 -1 -1 -0 0 1 1 1 1 1 2 2 2 2 2 2 2 3 3 4 4 4 5 5 5 5 5 5 5 5 5 4 4 5 4 4 5 5 5 6 6 6 6 6 7 7 7 7 7 7 7 6 6 6 5 5 5 5 5 5
-0 -1 -1 -1 -1 -2 -2 -2 -2 -3 -3 -3 -3 -2 -2 -2 -3 -3 -3 -3 -3 -3 -2 -2 -2 -2 -2 -1 -1 -1 -0 0 0 0 1 1 1 2 2 2 2 2 2 2 3 3 4 4 4 5 5 5 5 5 5 4 4 4 4 4 4 5 5 5 5 6 6 6 6 6 7 7 7 7 7 7 7 6 6 6 5 5 5 5 5
-0 -1 -1 -1 -2 -2 -2 -2 -2 -3 -3 -3 -3 -3 -3 -3 -3 -3 -4 -4 -4 -3 -3 -3 -3 -2 -2 -2 -2 -1 -1 -1 -1 -0 0 0 1 1 1 1 1 1 1 1 2 2 3 3 4 4 5 5 5 5 5 5 4 4 4 5 4 4 5 5 5 5 6 6 6 6 6 7 7 7 7 7 7 7 7 6 6 5 5 5 5
-0 -1 -1 -1 -2 -2 -3 -3 -2 -3 -3 -4 -4 -4 -3 -3 -3 -3 -4 -4 -4 -4 -4 -3 -3 -3 -3 -3 -3 -2 -2 -2 -1 -1 -1 -0 -0 0 0 1 1 1 1 1 1 1 2 2 2 3 4 5 5 5 5 5 5 4 4 4 5 5 5 5 5 6 6 7 7 7 7 7 7 8 8 7 7 7 7 6 6 6 6 5 5
-1 -1 -1 -1 -2 -2 -3 -3 -3 -3 -4 -4 -4 -4 -4 -4 -3 -4 -4 -4 -4 -4 -4 -4 -4 -3 -3 -3 -3 -3 -3 -2 -2 -2 -1 -1 -1 -1 -0 0 0 1 1 1 1 1 1 1 1 2 3 3 4 5 5 5 5 5 5 5 5 5 5 5 5 6 6 7 7 7 7 7 7 7 8 8 7 7 7 7 6 6 6 5 5
-1 -1 -1 -2 -2 -2 -3 -3 -3 -3 -4 -5 -5 -5 -4 -4 -4 -4 -4 -4 -4 -4 -4 -4 -4 -4 -4 -4 -3 -3 -3 -3 -2 -2 -2 -2 -1 -1 -1 -1 -0 0 1 1 1 1 1 1 1 1 1 2 2 3 4 4 4 4 4 5 5 5 5 6 6 6 6 6 7 7 7 7 7 7 7 8 7 7 7 7 7 6 6 6 5
-1 -1 -1 -2 -2 -3 -3 -4 -4 -4 -4 -5 -5 -5 -5 -4 -4 -4 -4 -5 -5 -5 -5 -5 -5 -4 -4 -4 -4 -4 -4 -3 -3 -3 -3 -2 -2 -2 -2 -1 -1 -1 -0 0 0 0 0 1 1 1 1 1 1 2 2 3 3 4 4 4 5 5 5 5 6 6 6 6 6 7 7 7 7 7 7 7 7 7 7 7 7 7 6 6 6
-2 -2 -2 -2 -3 -3 -3 -4 -4 -4 -4 -5 -5 -5 -5 -4 -4 -4 -5 -5 -5 -5 -5 -5 -5 -5 -5 -5 -5 -4 -4 -4 -4 -4 -3 -3 -3 -3 -2 -2 -2 -1 -1 -1 -1 -0 -0 0 0 0 1 1 1 1 1 1 2 3 3 4 4 4 5 5 5 5 5 6 6 7 7 7 7 7 7 7 7 7 7 7 7 7 6 6 6
Height
1557 1555 1553 1551 1550 1548 1546 1544 1543 1542 1541 1540 1539 1538 1537 1536 1536 1536 1535 1535 1535 1535 1536 1536 1536 1536 1537 1538 1538 1539 1539 1538 1538 1538 1537 1537 1535 1534 1534 1534 1533 1533 1533 1533 1533 1533 1533 1533 1534 1534 1534 1534 1534 1534 1534 1534 1534 1535 1535 1535 1536 1536 1536 1536 1536 1536 1536 1537 1538 1538 1538 1538 1538 1537 1537 1536 1535 1534 1533 1532 1530 1529 1528 1527 1525
1557 1555 1553 1551 1549 1547 1545 1544 1542 1541 1540 1539 1538 1536 1535 1534 1533 1533 1533 1533 1533 1533 1533 1534 1534 1533 1533 1534 1535 1536 1536 1536 1536 1536 1536 1535 1534 1533 1533 1532 1532 1532 1531 1532 1532 1532 1532 1532 1532 1533 1533 1533 1533 1533 1533 1533 1534 1534 1534 1535 1535 1535 1535 1536 1536 1536 1536 1536 1537 1537 1538 1538 1538 1537 1537 1536 1535 1534 1533 1532 1531 1530 1529 1528 1526
1558 1556 1554 1551 1549 1547 1545 1543 1541 1540 1539 1537 1536 1534 1533 1532 1531 1531 1531 1531 1531 1531 1531 1531 1531 1531 1531 1531 1532 1533 1533 1534 1534 1535 1535 1534 1533 1532 1531 1530 1530 1530 1530 1530 1530 1530 1530 1530 1531 1531 1531 1531 1531 1532 1532 1532 1533 1533 1534 1534 1534 1534 1535 1535 1535 1535 1535 1535 1536 1537 1537 1537 1537 1537 1537 1537 1536 1535 1534 1533 1532 1531 1530 1529 1528
1559 1557 1555 1553 1551 1548 1546 1544 1542 1540 1538 1537 1535 1534 1532 1531 1530 1530 1529 1529 1529 1528 1528 1528 1528 1528 1528 1529 1529 1530 1531 1531 1532 1533 1533 1533 1532 1531 1530 1529 1528 1528 1528 1529 1529 1529 1529 1529 1529 1530 1530 1530 1530 1531 1531 1532 1532 1532 1533 1533 1533 1534 1534 1534 1535 1535 1535 1535 1535 1536 1537 1537 1537 1537 1537 1537 1536 1536 1535 1534 1533 1532 1531 1530 1529
1560 1558 1556 1554 1552 1550 1548 1545 1543 1541 1539 1537 1535 1534 1532 1531 1530 1529 1528 1527 1527 1526 1526 1526 1525 1525 1526 1526 1527 1527 1528 1528 1529 1531 1531 1532 1531 1530 1529 1528 1527 1526 1527 1527 1527 1528 1528 1528 1528 1528 1528 1529 1529 1529 1530 1531 1531 1531 1532 1532 1533 1533 1533 1534 1534 1535 1535 1535 1535 1535 1536 1536 1537 1537 1537 1537 1536 1536 1535 1534 1534 1533 1532 1531 1530
1562 1560 1557 1555 1553 1551 1549 1547 1545 1542 1540 1538 1536 1534 1532 1531 1529 1528 1526 1525 1525 1524 1524 1523 1523 1523 1524 1524 1525 1525 1526 1526 1526 1528 1529 1530 1530 1529 1528 1527 1526 1525 1525 1525 1526 1526 1526 1526 1527 1527 1527 1527 1528 1528 1528 1529 1530 1530 1531 1532 1532 1532 1533 1533 1534 1534 1535 1535 1535 1535 1535 1536 1536 1537 1536 1536 1536 1536 1535 1535 1534 1533 1532 1531 1530
1563 1561 1559 1556 1554 1552 1549 1547 1545 1543 1541 1539 1537 1535 1533 1531 1529 1527 1526 1524 1523 1523 1522 1522 1521 1521 1522 1522 1523 1523 1524 1524 1524 1525 1526 1527 1528 1528 1527 1526 1525 1524 1523 1524 1524 1525 1525 1525 1525 1525 1526 1526 1526 1526 1527 1528 1528 1529 1530 1530 1531 1531 1532 1533 1533 1534 1534 1534 1534 1534 1535 1535 1536 1536 1536 1536 1536 1536 1535 1535 1534 1533 1532 1531 1531
1564 1561 1559 1557 1555 1552 1550 1548 1546 1544 1542 1540 1538 1535 1533 1531 1529 1527 1525 1523 1522 1521 1520 1519 1519 1519 1519 1520 1521 1521 1521 1522 1522 1522 1523 1524 1526 1526 1526 1525 1524 1522 1522 1522 1523 1523 1523 1523 1524 1524 1524 1524 1525 1525 1526 1526 1527 1528 1528 1529 1530 1530 1531 1532 1532 1533 1534 1534 1534 1534 1535 1535 1535 1536 1535 1535 1535 1535 1534 1534 1534 1533 1532 1532 1531
1564 1562 1560 1557 1555 1553 1551 1549 1546 1544 1542 1540 1538 1535 1533 1531 1529 1527 1525 1522 1521 1519 1517 1517 1516 1516 1516 1517 1517 1519 1520 1520 1520 1520 1521 1521 1523 1524 1525 1524 1523 1521 1521 1521 1521 1521 1522 1522 1522 1522 1523 1523 1523 1523 1524 1525 1525 1526 1527 1528 1528 1529 1530 1531 1531 1532 1533 1533 1534 1534 1534 1535 1535 1535 1534 1534 1534 1534 1534 1534 1534 1533 1533 1532 1532
1564 1562 1560 1558 1556 1554 1552 1549 1547 1545 1543 1540 1538 1535 1533 1531 1528 1526 1524 1521 1520 1518 1516 1516 1515 1514 1513 1513 1514 1516 1517 1518 1518 1518 1519 1519 1521 1522 1523 1523 1521 1520 1520 1520 1520 1520 1520 1520 1520 1521 1521 1521 1521 1522 1522 1523 1524 1525 1526 1526 1527 1528 1528 1529 1530 1530 1532 1532 1533 1533 1534 1534 1534 1534 1534 1534 1534 1534 1533 1533 1533 1533 1533 1532 1532
1564 1562 1560 1558 1556 1554 1551 1549 1547 1545 1543 1541 1539 1536 1534 1531 1528 1526 1523 1521 1519 1517 1515 1514 1514 1513 1512 1512 1512 1513 1514 1515 1516 1517 1517 1517 1518 1520 1521 1521 1520 1519 1519 1519 1519 1519 1519 1519 1519 1519 1519 1520 1520 1520 1521 1522 1523 1524 1525 1525 1526 1527 1527 1528 1529 1529 1530 1531 1532 1532 1533 1533 1533 1533 1534 1534 1533 1533 1534 1533 1533 1533 1533 1532 1532
1564 1562 1560 1558 1556 1553 1551 1549 1547 1545 1543 1541 1539 1536 1534 1532 1529 1526 1523 1521 1518 1516 1515 1513 1512 1511 1510 1509 1510 1511 1511 1512 1514 1515 1515 1515 1517 1518 1518 1519 1518 1518 1518 1517 1518 1518 1517 1518 1518 1518 1518 1518 1518 1519 1519 1520 1521 1523 1524 1525 1526 1526 1527 1528 1528 1529 1529 1530 1531 1532 1532 1533 1533 1533 1533 1533 1533 1533 1533 1533 1533 1533 1533 1533 1532
1564 1562 1560 1558 1556 1554 1552 1549 1547 1545 1543 1541 1539 1536 1534 1532 1529 1527 1524 1521 1518 1516 1514 1512 1510 1509 1507 1507 1508 1509 1510 1510 1511 1512 1514 1514 1515 1516 1516 1517 1516 1516 1516 1516 1516 1516 1516 1517 1517 1516 1517 1517 1517 1517 1518 1519 1520 1521 1522 1524 1525 1526 1527 1527 1528 1528 1529 1529 1530 1531 1532 1532 1533 1533 1533 1533 1533 1533 1533 1533 1533 1533 1533 1533 1532
1563 1561 1559 1558 1556 1554 1552 1549 1547 1545 1543 1540 1538 1536 1534 1532 1529 1527 1524 1521 1519 1516 1514 1512 1510 1508 1507 1507 1507 1507 1508 1508 1508 1510 1512 1513 1513 1514 1514 1515 1515 1515 1515 1515 1515 1515 1515 1516 1516 1516 1516 1516 1516 1516 1517 1517 1518 1519 1520 1522 1523 1524 1525 1526 1527 1527 1528 1529 1529 1530 1531 1532 1532 1532 1533 1533 1533 1533 1533 1533 1533 1533 1533 1533 1532
1563 1562 1560 1557 1555 1553 1551 1549 1547 1545 1543 1540 1538 1535 1533 1531 1529 1526 1524 1522 1519 1516 1514 1512 1510 1508 1506 1505 1505 1505 1506 1507 1507 1508 1509 1511 1512 1512 1513 1513 1513 1514 1514 1514 1514 1514 1514 1515 1515 1515 1515 1515 1515 1515 1516 1516 1516 1517 1518 1520 1521 1522 1524 1525 1526 1526 1527 1528 1529 1530 1530 1531 1531 1532 1532 1533 1533 1533 1533 1533 1533 1533 1533 1533 1532
1564 1562 1560 1557 1555 1553 1551 1549 1547 1544 1542 1540 1537 1535 1533 1530 1528 1525 1523 1522 1520 1517 1515 1512 1510 1508 1506 1504 1503 1503 1504 1504 1505 1506 1507 1509 1510 1510 1511 1511 1512 1512 1512 1513 1513 1513 1513 1513 1514 1514 1514 1514 1514 1514 1514 1515 1515 1516 1517 1518 1519 1520 1522 1523 1524 1525 1526 1526 1527 1528 1529 1530 1531 1531 1532 1532 1532 1533 1533 1533 1533 1533 1533 1533 1533
1564 1562 1560 1558 1556 1553 1551 1549 1547 1544 1542 1539 1537 1534 1532 1530 1528 1525 1523 1521 1520 1518 1515 1513 1510 1509 1507 1505 1503 1502 1502 1502 1503 1504 1505 1506 1507 1508 1509 1509 1510 1510 1511 1511 1512 1512 1512 1512 1513 1513 1513 1513 1513 1513 1513 1514 1514 1515 1515 1516 1517 1519 1520 1521 1522 1523 1524 1525 1526 1527 1528 1529 1530 1530 1531 1531 1532 1532 1532 1532 1532 1532 1532 1533 1533
1564 1562 1560 1558 1556 1553 1551 1548 1546 1544 1542 1539 1537 1534 1532 1530 1528 1525 1523 1521 1520 1518 1516 1514 1511 1509 1507 1505 1503 1502 1501 1501 1501 1501 1502 1503 1505 1506 1507 1507 1508 1508 1509 1510 1510 1511 1511 1511 1511 1512 1512 1512 1512 1512 1512 1513 1513 1514 1514 1515 1516 1517 1518 1519 1520 1522 1523 1524 1525 1526 1527 1528 1529 1529 1530 1530 1530 1531 1531 1531 1532 1532 1532 1532 1533
1564 1562 1560 1557 1555 1553 1550 1548 1545 1543 1541 1539 1537 1534 1532 1530 1528 1525 1523 1521 1519 1518 1516 1514 1512 1510 1508 1506 1504 1502 1501 1499 1499 1499 1500 1501 1502 1503 1505 1505 1506 1507 1507 1508 1509 1509 1510 1510 1510 1511 1511 1511 1511 1511 1511 1512 1512 1513 1513 1514 1514 1516 1517 1518 1519 1521 1522 1523 1524 1525 1526 1527 1528 1528 1529 1529 1529 1529 1530 1530 1531 1531 1532 1532 1532
1564 1561 1559 1556 1554 1552 1549 1547 1545 1542 1540 1538 1536 1534 1532 1530 1527 1525 1522 1521 1519 1517 1515 1513 1512 1510 1508 1506 1504 1502 1500 1499 1498 1497 1498 1499 1499 1500 1501 1503 1504 1505 1505 1506 1507 1508 1508 1509 1509 1510 1510 1510 1510 1510 1510 1511 1512 1512 1513 1513 1514 1515 1516 1517 1519 1520 1521 1522 1523 1524 1525 1526 1527 1527 1527 1528 1528 1528 1529 1529 1530 1531 1532 1532 1532
1563 1561 1558 1555 1553 1550 1548 1546 1544 1541 1539 1537 1535 1533 1531 1529 1527 1524 1522 1520 1518 1516 1515 1513 1511 1510 1508 1507 1504 1501 1499 1498 1497 1496 1496 1495 1496 1497 1498 1499 1501 1503 1504 1504 1505 1506 1507 1508 1509 1509 1509 1509 1510 1509 1510 1510 1511 1512 1513 1513 1514 1514 1515 1516 1517 1519 1520 1521 1522 1523 1524 1525 1525 1526 1526 1527 1527 1527 1528 1529 1530 1531 1531 1532 1532
1562 1559 1557 1554 1552 1549 1547 1545 1542 1540 1538 1536 1534 1532 1530 1528 1526 1524 1522 1520 1518 1516 1515 1512 1511 1509 1508 1506 1504 1502 1500 1498 1497 1496 1494 1491 1491 1493 1495 1497 1499 1501 1502 1502 1503 1505 1506 1507 1507 1508 1508 1508 1509 1509 1509 1510 1510 1511 1512 1513 1513 1514 1514 1515 1516 1518 1519 1520 1521 1522 1523 1523 1524 1525 1525 1526 1526 1527 1527 1528 1529 1530 1531 1531 1532
1560 1557 1555 1552 1550 1548 1545 1543 1541 1539 1537 1535 1533 1531 1529 1527 1525 1523 1521 1519 1517 1516 1514 1512 1510 1509 1507 1506 1504 1502 1501 1499 1497 1497 1495 1491 1489 1490 1492 1494 1496 1497 1499 1500 1501 1503 1505 1506 1506 1507 1507 1508 1508 1508 1508 1509 1510 1511 1512 1512 1513 1513 1514 1515 1516 1517 1518 1519 1520 1521 1522 1522 1523 1524 1525 1525 1525 1526 1527 1528 1529 1530 1531 1531 1531
1559 1556 1553 1551 1549 1547 1545 1543 1541 1539 1536 1534 1532 1530 1528 1526 1524 1523 1521 1519 1517 1515 1514 1512 1510 1508 1507 1505 1503 1502 1500 1498 1497 1496 1495 1493 1490 1489 1490 1491 1493 1494 1496 1498 1499 1501 1503 1504 1505 1506 1507 1507 1507 1507 1508 1508 1509 1510 1511 1512 1512 1513 1514 1515 1516 1516 1517 1518 1519 1520 1521 1522 1523 1523 1524 1524 1525 1526 1527 1528 1529 1530 1530 1531 1531
1558 1555 1552 1550 1548 1545 1543 1542 1540 1538 1536 1534 1531 1529 1527 1526 1524 1522 1520 1518 1516 1515 1513 1512 1510 1508 1507 1504 1502 1501 1499 1497 1496 1494 1493 1493 1491 1490 1489 1489 1490 1491 1493 1495 1497 1499 1501 1503 1504 1505 1506 1506 1506 1507 1507 1507 1508 1509 1510 1511 1512 1512 1513 1514 1515 1516 1517 1518 1519 1520 1521 1522 1523 1523 1524 1524 1525 1526 1527 1528 1529 1529 1530 1530 1531
1556 1553 1551 1549 1547 1545 1542 1540 1539 1537 1535 1533 1531 1529 1527 1525 1524 1522 1520 1518 1516 1514 1513 1511 1509 1508 1506 1504 1502 1500 1498 1496 1495 1493 1492 1491 1490 1489 1488 1487 1487 1488 1490 1492 1494 1496 1498 1501 1503 1503 1504 1505 1506 1506 1507 1507 1508 1509 1510 1511 1511 1512 1513 1514 1514 1516 1517 1518 1519 1520 1521 1522 1523 1523 1524 1525 1525 1526 1527 1528 1528 1529 1529 1530 1530
1555 1552 1550 1548 1546 1544 1541 1539 1537 1535 1534 1532 1530 1528 1527 1525 1523 1521 1519 1517 1515 1513 1513 1511 1509 1507 1506 1504 1502 1500 1497 1495 1493 1492 1490 1490 1489 1487 1486 1486 1486 1486 1488 1491 1492 1493 1496 1499 1501 1502 1503 1503 1504 1505 1506 1506 1507 1508 1509 1510 1511 1511 1512 1513 1514 1515 1516 1517 1518 1520 1521 1522 1523 1523 1524 1525 1526 1527 1527 1528 1528 1528 1528 1529 1530
1554 1551 1549 1547 1545 1543 1540 1538 1536 1534 1532 1531 1529 1527 1525 1523 1522 1521 1519 1517 1515 1513 1513 1511 1510 1508 1505 1503 1501 1499 1497 1495 1492 1490 1489 1489 1488 1486 1485 1485 1485 1486 1488 1489 1490 1492 1494 1496 1498 1499 1500 1501 1502 1504 1504 1505 1506 1508 1508 1509 1510 1511 1511 1512 1513 1514 1515 1516 1517 1519 1520 1521 1522 1523 1524 1524 1525 1526 1527 1527 1527 1527 1528 1528 1529
1554 1551 1549 1546 1544 1542 1540 1537 1535 1533 1531 1529 1528 1527 1525 1523 1521 1520 1520 1518 1516 1514 1513 1512 1510 1508 1506 1503 1500 1498 1497 1495 1493 1491 1489 1488 1487 1485 1484 1483 1483 1485 1486 1486 1488 1490 1492 1494 1495 1497 1498 1499 1500 1502 1503 1504 1506 1507 1508 1509 1509 1510 1511 1511 1513 1514 1515 1516 1516 1518 1519 1521 1521 1522 1523 1524 1525 1525 1526 1526 1527 1527 1527 1528 1529
1553 1551 1548 1545 1543 1540 1538 1536 1534 1532 1529 1527 1526 1525 1524 1523 1521 1519 1518 1517 1516 1515 1514 1512 1510 1508 1505 1503 1501 1499 1497 1496 1494 1491 1489 1488 1486 1485 1483 1482 1482 1483 1482 1482 1484 1487 1489 1491 1493 1495 1496 1497 1499 1500 1501 1503 1504 1506 1507 1508 1509 1509 1510 1511 1512 1513 1514 1515 1516 1517 1518 1520 1520 1521 1522 1523 1524 1525 1525 1526 1526 1527 1527 1528 1529
1552 1550 1547 1544 1542 1539 1537 1535 1533 1531 1529 1526 1524 1522 1521 1520 1520 1519 1516 1515 1514 1513 1512 1511 1510 1507 1503 1501 1500 1498 1497 1495 1493 1490 1488 1487 1485 1484 1483 1482 1481 1481 1481 1481 1483 1486 1487 1488 1490 1492 1494 1495 1497 1498 1500 1502 1503 1505 1506 1507 1508 1508 1509 1510 1511 1512 1513 1514 1515 1516 1518 1519 1520 1521 1522 1523 1523 1524 1525 1525 1526 1527 1528 1529 1529
1552 1549 1547 1544 1541 1539 1537 1534 1532 1529 1527 1525 1523 1520 1518 1516 1516 1515 1514 1513 1511 1510 1509 1508 1506 1504 1502 1500 1498 1497 1495 1493 1492 1490 1488 1486 1485 1484 1483 1482 1481 1481 1481 1481 1482 1484 1485 1485 1487 1489 1491 1492 1495 1497 1499 1500 1502 1504 1505 1506 1507 1508 1508 1509 1510 1511 1512 1513 1514 1516 1517 1518 1519 1520 1522 1523 1523 1523 1524 1525 1526 1527 1528 1529 1529
1551 1549 1546 1544 1541 1538 1536 1533 1531 1529 1527 1525 1523 1520 1518 1515 1513 1511 1510 1509 1508 1508 1507 1505 1503 1502 1500 1499 1498 1496 1495 1493 1491 1490 1488 1487 1485 1484 1483 1482 1481 1481 1481 1481 1481 1482 1483 1483 1485 1486 1488 1491 1493 1495 1497 1498 1500 1502 1503 1504 1506 1507 1508 1509 1509 1510 1511 1512 1513 1515 1516 1518 1519 1520 1521 1522 1522 1523 1524 1525 1526 1527 1528 1529 1530
1551 1548 1546 1543 1541 1538 1536 1534 1532 1530 1528 1526 1523 1521 1519 1517 1514 1511 1508 1506 1504 1503 1503 1502 1501 1500 1499 1498 1497 1496 1494 1492 1491 1489 1488 1487 1486 1485 1484 1483 1482 1481 1481 1481 1481 1481 1481 1482 1483 1485 1487 1488 1490 1492 1494 1496 1498 1500 1501 1503 1504 1505 1506 1507 1508 1509 1510 1511 1512 1514 1515 1517 1518 1519 1520 1521 1522 1523 1523 1524 1525 1526 1527 1528 1529
1551 1549 1546 1544 1541 1539 1537 1535 1533 1531 1529 1527 1525 1523 1521 1518 1516 1513 1510 1507 1505 1503 1501 1500 1499 1499 1498 1497 1496 1495 1493 1492 1490 1489 1488 1487 1486 1485 1484 1483 1482 1481 1481 1481 1481 1481 1481 1481 1481 1483 1484 1485 1487 1489 1491 1493 1495 1497 1498 1500 1502 1503 1504 1504 1505 1507 1508 1509 1510 1512 1513 1515 1516 1518 1519 1520 1521 1522 1523 1523 1524 1526 1527 1528 1529
1551 1548 1546 1544 1542 1540 1538 1536 1534 1532 1530 1528 1526 1524 1522 1520 1517 1515 1512 1510 1508 1505 1503 1501 1499 1499 1498 1497 1495 1494 1493 1491 1490 1489 1488 1487 1485 1484 1484 1483 1482 1482 1482 1481 1481 1481 1480 1480 1480 1481 1482 1483 1485 1486 1488 1490 1492 1494 1496 1498 1499 1500 1501 1502 1503 1505 1506 1507 1508 1510 1511 1513 1515 1516 1518 1519 1520 1521 1522 1522 1523 1525 1526 1527 1529
1550 1548 1546 1544 1542 1540 1539 1537 1535 1533 1531 1529 1527 1525 1523 1520 1518 1516 1513 1511 1509 1507 1504 1502 1500 1498 1497 1496 1494 1493 1493 1492 1491 1490 1488 1487 1486 1485 1484 1483 1482 1482 1482 1482 1481 1481 1480 1480 1480 1480 1480 1481 1482 1484 1486 1488 1490 1491 1493 1495 1496 1497 1498 1500 1501 1503 1504 1505 1506 1508 1509 1511 1512 1514 1516 1517 1518 1520 1521 1522 1523 1524 1525 1526 1528
1551 1548 1546 1544 1542 1541 1539 1537 1535 1534 1532 1529 1527 1525 1523 1521 1519 1516 1514 1512 1510 1507 1505 1503 1501 1498 1496 1495 1494 1493 1492 1491 1490 1488 1487 1486 1485 1485 1484 1483 1482 1482 1481 1481 1480 1480 1480 1479 1479 1479 1479 1479 1480 1482 1484 1485 1487 1489 1491 1492 1493 1494 1496 1497 1499 1500 1502 1503 1504 1506 1507 1509 1510 1512 1513 1515 1517 1518 1519 1521 1522 1523 1524 1525 1527
1551 1548 1546 1544 1542 1541 1539 1537 1536 1534 1532 1530 1528 1525 1523 1521 1519 1517 1514 1512 1510 1508 1506 1504 1502 1500 1498 1497 1495 1493 1491 1489 1488 1487 1486 1485 1485 1484 1483 1483 1482 1481 1480 1480 1479 1479 1479 1478 1478 1477 1477 1478 1479 1480 1481 1483 1484 1486 1488 1490 1491 1492 1493 1495 1496 1498 1500 1501 1503 1504 1505 1507 1508 1510 1511 1513 1515 1516 1518 1519 1521 1522 1523 1524 1526
1551 1549 1547 1545 1543 1541 1539 1538 1536 1534 1532 1530 1528 1526 1524 1521 1519 1517 1515 1513 1511 1509 1507 1505 1503 1502 1500 1499 1496 1494 1492 1490 1489 1488 1487 1485 1484 1483 1483 1482 1481 1480 1480 1479 1478 1478 1477 1477 1477 1477 1477 1477 1477 1478 1479 1480 1482 1484 1486 1488 1489 1489 1491 1492 1494 1496 1498 1500 1501 1503 1504 1505 1507 1508 1509 1511 1513 1514 1516 1518 1519 1520 1522 1523 1525
1552 1550 1548 1545 1543 1542 1540 1538 1536 1534 1532 1531 1529 1527 1524 1522 1520 1518 1516 1514 1512 1510 1508 1506 1505 1503 1502 1500 1498 1496 1494 1492 1490 1489 1487 1486 1484 1483 1482 1481 1480 1479 1479 1478 1477 1476 1476 1476 1476 1476 1476 1476 1476 1476 1477 1478 1479 1481 1483 1485 1487 1488 1489 1490 1491 1493 1495 1498 1500 1501 1503 1504 1505 1506 1507 1509 1511 1513 1514 1516 1518 1519 1520 1522 1523
1552 1550 1548 1546 1544 1542 1540 1538 1536 1535 1533 1531 1529 1527 1525 1523 1521 1519 1517 1515 1513 1511 1509 1507 1505 1504 1502 1501 1499 1497 1495 1493 1492 1490 1488 1486 1485 1483 1482 1481 1480 1479 1478 1477 1476 1475 1475 1474 1474 1474 1474 1475 1475 1475 1475 1476 1476 1477 1479 1482 1484 1486 1487 1488 1489 1491 1493 1495 1498 1499 1501 1503 1504 1505 1506 1508 1509 1511 1512 1514 1516 1517 1519 1520 1522
1553 1551 1549 1546 1544 1542 1540 1538 1537 1535 1533 1531 1530 1528 1526 1524 1522 1520 1518 1516 1514 1512 1510 1508 1506 1504 1503 1501 1499 1497 1496 1494 1493 1491 1489 1487 1486 1484 1483 1482 1480 1479 1478 1477 1475 1474 1473 1473 1472 1472 1472 1472 1473 1473 1474 1474 1474 1475 1476 1478 1481 1483 1484 1486 1487 1488 1490 1492 1495 1498 1499 1501 1502 1504 1505 1506 1507 1509 1510 1512 1514 1515 1517 1519 1520
1553 1551 1549 1547 1545 1543 1541 1539 1537 1536 1534 1532 1531 1529 1527 1525 1523 1520 1518 1517 1515 1513 1511 1509 1507 1505 1504 1502 1500 1498 1496 1495 1494 1492 1490 1488 1486 1484 1483 1482 1480 1479 1478 1476 1475 1473 1472 1472 1471 1471 1470 1470 1471 1471 1472 1472 1472 1473 1474 1475 1477 1480 1482 1483 1485 1487 1488 1489 1492 1495 1497 1498 1500 1502 1503 1504 1506 1507 1508 1510 1511 1513 1515 1517 1518
1553 1552 1550 1548 1546 1544 1542 1540 1538 1536 1535 1533 1532 1530 1528 1526 1523 1521 1519 1517 1515 1514 1512 1510 1509 1507 1505 1503 1501 1499 1498 1496 1495 1493 1491 1489 1488 1486 1484 1482 1481 1479 1478 1476 1474 1473 1471 1471 1470 1470 1470 1469 1469 1469 1469 1470 1471 1472 1473 1474 1475 1477 1479 1480 1482 1484 1486 1487 1489 1491 1494 1496 1498 1499 1500 1502 1503 1505 1506 1508 1509 1511 1513 1514 1516
1553 1551 1550 1548 1546 1544 1543 1541 1539 1537 1535 1534 1532 1530 1529 1526 1524 1522 1521 1519 1517 1515 1513 1512 1510 1508 1506 1505 1503 1501 1499 1498 1496 1494 1493 1491 1489 1488 1486 1484 1482 1480 1479 1477 1475 1473 1471 1470 1469 1469 1468 1468 1468 1467 1467 1468 1469 1470 1471 1472 1474 1475 1476 1477 1479 1481 1482 1484 1486 1488 1490 1493 1495 1497 1498 1499 1501 1503 1504 1506 1507 1509 1510 1512 1514
1553 1552 1550 1548 1546 1545 1543 1542 1540 1538 1536 1534 1533 1531 1529 1527 1525 1524 1522 1520 1518 1516 1514 1513 1511 1510 1508 1506 1504 1502 1501 1499 1497 1496 1494 1492 1490 1489 1488 1486 1484 1482 1480 1479 1477 1475 1473 1471 1469 1468 1468 1467 1466 1466 1466 1466 1467 1468 1469 1471 1472 1473 1474 1476 1477 1478 1480 1482 1484 1485 1487 1489 1492 1495 1496 1497 1499 1500 1502 1503 1505 1507 1508 1510 1512
1553 1552 1550 1548 1547 1545 1544 1542 1540 1538 1536 1535 1533 1532 1530 1528 1526 1524 1522 1521 1519 1517 1515 1514 1512 1511 1509 1508 1506 1504 1502 1501 1499 1497 1495 1494 1492 1491 1489 1487 1485 1483 1481 1480 1479 1477 1475 1473 1471 1470 1469 1467 1466 1465 1465 1465 1465 1466 1467 1468 1469 1471 1472 1474 1474 1475 1477 1479 1481 1483 1485 1486 1489 1492 1493 1495 1496 1498 1499 1501 1503 1504 1506 1508 1510
1554 1552 1550 1549 1547 1545 1544 1542 1541 1539 1537 1536 1534 1533 1531 1530 1528 1525 1523 1522 1520 1518 1516 1515 1513 1512 1510 1509 1507 1505 1503 1502 1500 1498 1496 1495 1493 1492 1490 1488 1487 1485 1482 1481 1479 1478 1476 1475 1473 1472 1471 1469 1467 1465 1464 1464 1465 1465 1465 1466 1467 1468 1470 1471 1472 1473 1475 1476 1478 1480 1482 1484 1486 1488 1491 1492 1494 1495 1497 1498 1500 1502 1504 1505 1507
1554 1552 1551 1549 1548 1546 1544 1543 1541 1540 1538 1536 1535 1533 1532 1531 1529 1527 1525 1523 1521 1519 1518 1516 1514 1513 1511 1509 1508 1506 1504 1503 1501 1499 1497 1496 1494 1493 1492 1490 1488 1486 1484 1482 1480 1478 1477 1476 1475 1474 1473 1471 1470 1468 1466 1465 1465 1465 1465 1465 1466 1466 1467 1469 1470 1471 1472 1474 1475 1477 1479 1481 1483 1485 1487 1490 1491 1493 1494 1496 1498 1499 1501 1503 1504
1554 1552 1551 1549 1548 1546 1545 1543 1542 1540 1539 1537 1535 1534 1533 1531 1529 1528 1526 1524 1522 1520 1519 1517 1515 1514 1512 1510 1509 1507 1505 1503 1502 1500 1498 1497 1495 1493 1492 1491 1489 1488 1486 1484 1482 1480 1478 1477 1476 1475 1474 1472 1472 1471 1469 1466 1465 1465 1465 1465 1465 1466 1466 1467 1468 1469 1470 1471 1473 1474 1476 1478 1480 1482 1484 1487 1489 1490 1492 1493 1495 1497 1498 1500 1502
Wind_Speed
16 17 18 18 17 17 17 16 15 14 14 15 16 16 17 18 19 20 20 22 23 23 22 18 16 16 17 18 15 12 11 12 12 13 13 12 9 7 10 11 10 10 9 7 5 7 10 10 8 7 6 7 6 5 5 5 6 9 12 14 16 15 15 16 14 12 12 11 9 6 4 2 2 3 8 10 8 8 10 12 14 16 17 18 19
20 21 22 22 21 20 19 18 16 14 12 12 13 14 15 16 17 18 18 19 21 22 21 19 17 17 16 17 14 11 11 13 14 14 14 14 12 8 8 10 11 12 12 10 7 7 10 10 9 8 7 9 9 7 7 7 5 7 9 13 15 15 15 15 15 14 13 12 11 7 4 3 3 3 7 9 8 9 10 10 11 13 14 17 19
20 22 24 24 25 24 22 20 19 17 15 14 13 14 14 15 15 16 16 17 18 19 19 18 18 16 16 16 14 11 12 15 16 16 15 14 13 9 7 7 8 12 13 12 10 10 10 11 12 10 8 10 12 10 8 7 6 6 7 10 12 14 15 14 13 13 12 12 11 8 5 4 3 2 5 7 7 8 9 8 9 11 12 15 18
21 22 24 25 25 26 26 24 22 20 18 17 15 14 14 14 15 15 15 16 17 18 18 18 16 15 15 15 14 12 14 15 16 17 16 15 13 9 7 6 5 9 12 12 11 10 9 10 12 11 8 10 13 12 10 9 7 6 7 7 8 10 11 11 10 10 10 11 11 8 6 3 3 3 2 5 5 6 7 7 7 8 10 12 15
22 23 23 23 24 25 26 27 26 24 23 20 18 16 15 14 15 16 16 16 16 17 18 17 16 15 16 15 14 14 16 17 17 17 17 17 13 10 9 7 5 7 11 12 11 10 10 11 10 8 8 11 12 11 11 11 9 7 7 6 5 6 9 9 9 7 6 8 9 9 9 6 5 5 2 4 3 3 4 5 6 6 7 10 12
21 22 22 22 23 24 25 26 27 26 25 24 22 20 17 15 14 15 15 16 16 16 17 18 18 17 17 17 15 14 16 18 18 17 17 18 16 13 11 9 7 6 9 12 12 12 12 12 10 8 8 11 12 11 10 10 11 9 9 8 6 7 9 10 10 8 6 8 8 8 9 8 7 6 1 2 3 3 2 4 4 4 5 7 9
20 20 19 20 22 23 24 26 27 26 25 24 23 23 21 18 16 15 15 15 16 16 18 19 19 17 17 19 18 15 16 18 18 17 17 19 18 14 12 9 8 7 8 10 11 12 12 11 10 8 8 11 13 12 9 8 10 11 11 10 9 9 10 11 11 9 8 11 11 8 8 9 8 5 1 1 3 4 3 4 3 3 4 6 8
19 19 17 18 20 21 23 25 26 27 26 23 22 22 23 22 20 17 16 16 17 18 19 20 20 19 18 19 19 17 16 17 17 17 18 19 19 16 13 10 9 8 9 9 9 10 9 9 8 7 8 10 10 11 10 8 8 10 12 11 11 11 11 11 11 10 10 12 13 10 8 9 9 6 4 3 6 6 4 4 3 3 4 6 7
18 18 16 17 19 21 22 24 26 27 26 24 23 22 22 23 22 20 19 17 17 18 20 21 22 22 20 20 20 19 17 17 17 17 18 19 18 17 15 11 9 9 9 10 10 9 8 8 7 7 8 9 10 10 11 9 7 7 10 13 13 12 12 13 12 12 12 13 14 12 9 9 9 7 6 6 6 6 5 6 5 3 3 5 7
16 17 16 15 17 20 22 23 24 25 25 24 23 23 23 23 22 21 21 20 18 17 18 18 20 22 23 22 21 20 19 19 19 18 18 18 17 17 16 13 10 9 9 10 10 9 8 7 7 7 7 9 10 10 11 12 9 7 7 11 14 14 14 14 13 12 13 13 14 12 9 9 9 6 5 6 5 6 7 7 7 5 4 5 6
17 18 17 15 17 21 22 23 24 25 26 25 24 24 24 23 23 22 21 20 20 19 18 17 17 20 22 22 22 21 20 19 20 20 19 18 17 17 16 13 10 10 9 9 9 9 8 7 7 7 8 8 10 11 12 13 12 10 8 8 11 13 14 14 13 12 13 13 13 11 8 7 7 5 5 6 7 7 6 6 7 6 5 6 8
18 20 18 16 18 20 20 21 22 24 26 26 25 25 25 24 24 24 23 23 21 20 19 18 16 17 18 19 21 22 20 16 18 20 19 18 18 17 16 14 12 11 10 10 10 10 8 7 5 6 8 9 10 11 12 13 14 14 12 10 9 12 13 13 12 10 10 11 11 10 8 7 7 6 6 6 8 7 6 6 6 5 6 7 8
16 18 18 18 18 19 19 19 21 22 23 23 23 24 25 25 25 25 25 25 24 23 21 19 16 15 15 14 16 21 21 17 17 20 20 18 18 18 17 15 13 11 11 11 11 11 8 6 3 3 6 9 10 11 12 13 13 14 15 14 13 12 12 12 11 10 10 11 11 10 9 9 9 8 8 7 8 8 6 6 6 5 5 6 7
16 17 18 22 24 23 23 23 23 23 23 22 22 22 24 26 26 27 26 24 25 26 24 21 17 13 13 13 14 18 21 19 18 20 21 19 19 18 17 15 13 12 12 12 12 11 8 5 3 3 4 6 9 10 11 11 13 14 15 16 16 15 15 14 13 12 12 13 13 12 11 11 10 9 8 8 8 7 7 7 7 6 5 7 7
18 18 18 20 24 24 25 27 27 24 21 21 21 21 23 25 26 27 26 22 23 27 25 22 18 14 11 12 14 17 20 19 18 20 21 20 19 18 17 16 14 13 13 13 12 11 9 7 6 4 3 4 6 7 9 10 11 13 15 16 16 16 16 16 15 14 13 12 12 11 11 11 9 8 8 8 7 7 8 8 7 6 6 7 6
19 20 18 18 21 22 24 27 26 22 20 21 21 20 22 24 25 27 24 20 22 26 25 22 18 15 13 10 10 13 17 19 19 20 20 20 19 18 18 17 16 14 14 14 12 11 9 8 8 7 4 3 4 5 7 8 9 10 12 14 16 16 16 16 16 15 15 13 11 10 10 10 9 8 8 8 7 8 8 7 7 7 6 6 4
18 19 18 19 21 22 23 25 24 22 22 22 22 22 22 23 25 24 21 19 21 24 25 23 19 17 16 15 11 9 11 17 20 19 19 20 20 19 18 18 17 15 15 14 13 11 10 10 9 8 6 4 4 5 6 6 7 7 8 10 12 13 14 15 16 16 16 15 13 11 11 10 9 9 9 8 9 9 9 7 8 7 6 7 4
18 20 20 21 23 23 22 23 24 23 22 22 23 24 23 23 24 22 17 17 20 23 25 25 22 19 17 16 16 13 9 10 16 19 18 19 20 20 20 19 17 16 15 15 15 12 11 11 10 9 7 6 6 6 6 6 5 5 6 7 9 10 11 13 14 16 17 16 15 13 12 11 11 10 10 10 10 11 10 8 7 8 8 8 5
21 23 24 24 25 24 23 23 23 22 22 22 23 25 24 22 23 21 16 15 18 20 24 26 24 21 18 16 16 14 12 12 11 13 17 19 21 21 20 20 19 17 15 16 16 14 12 12 11 9 8 7 7 6 5 6 5 4 4 5 7 9 9 10 12 13 15 16 16 16 15 14 13 13 12 12 12 12 12 10 9 10 10 8 7
24 25 25 24 23 21 21 21 21 21 23 23 24 25 24 22 23 21 17 15 16 18 21 23 22 21 20 20 18 14 12 15 16 12 12 20 24 22 21 21 20 17 16 16 17 16 14 12 10 9 8 7 7 6 5 6 5 4 3 4 5 6 7 9 10 12 14 15 16 17 17 17 17 16 16 15 15 14 13 10 11 12 10 7 7
24 24 23 22 21 20 19 19 20 22 23 23 23 22 21 21 22 22 19 16 15 16 19 20 18 17 19 22 23 19 16 16 17 17 15 15 23 24 22 22 21 18 16 16 17 16 14 10 8 7 7 7 7 6 5 6 6 4 3 3 4 5 6 7 9 11 12 13 15 16 17 17 18 17 17 16 14 12 11 11 12 12 8 5 6
25 25 24 23 22 21 20 18 18 20 20 20 19 18 18 19 20 20 19 18 17 17 19 19 17 15 17 20 23 24 22 19 14 15 21 18 14 22 22 21 21 19 17 16 17 16 14 8 5 6 6 5 6 6 5 6 6 5 4 4 5 5 4 5 8 9 10 12 13 14 15 15 16 16 15 15 13 11 11 13 12 10 8 5 4
27 28 27 26 24 23 21 18 16 16 16 16 16 16 16 17 19 20 20 21 20 18 19 20 18 16 16 18 21 24 24 22 17 12 17 23 14 14 22 24 22 21 19 17 16 16 13 8 5 6 5 2 3 4 5 5 5 5 5 5 5 5 4 4 7 8 9 9 10 12 12 13 13 13 13 13 13 11 12 13 12 9 7 6 5
28 28 27 27 25 24 21 17 14 13 14 14 16 17 17 17 18 20 21 23 23 21 20 21 21 20 19 20 22 24 24 24 23 16 12 17 19 11 15 24 24 22 20 19 17 16 14 9 7 7 5 2 1 2 3 4 5 5 6 6 6 6 5 5 7 8 9 8 8 9 10 9 9 10 11 13 14 13 12 13 11 9 7 6 6
27 27 27 26 25 23 20 17 14 12 13 14 16 18 20 20 20 21 22 23 24 23 22 23 23 22 22 23 23 25 25 24 24 20 13 12 15 14 12 17 23 23 20 20 20 18 16 13 10 8 7 5 3 2 2 2 3 5 6 7 8 7 6 7 8 7 8 8 7 8 8 8 7 7 9 11 13 12 12 12 11 10 9 8 8
27 26 26 25 24 23 21 18 15 13 13 14 15 18 20 22 22 23 23 22 23 23 22 21 22 21 21 23 25 25 25 25 24 22 17 12 10 12 15 13 19 24 21 21 22 20 18 16 15 13 10 9 8 5 2 2 3 4 6 7 8 8 7 7 8 8 6 7 8 7 7 6 6 6 7 7 8 8 9 9 10 11 11 11 11
26 26 25 25 24 22 21 19 18 17 16 16 17 18 19 21 22 23 24 23 22 22 20 19 20 21 21 22 23 24 25 25 25 22 17 14 11 11 13 11 10 20 21 20 22 21 18 17 17 15 13 12 11 9 6 5 4 4 5 6 7 8 8 8 10 10 8 8 8 7 7 7 7 7 5 5 5 5 5 5 6 9 11 12 13
25 25 25 24 23 22 21 21 21 21 20 19 19 19 19 20 20 19 20 20 20 19 18 19 20 21 21 21 21 22 23 24 25 23 17 13 13 13 12 10 6 11 17 21 23 22 19 17 17 17 16 15 14 13 11 9 7 5 5 6 7 8 9 10 11 11 10 9 9 8 7 8 9 8 6 4 4 4 4 5 5 8 11 12 12
24 24 25 24 23 22 22 23 23 23 23 21 19 18 16 17 17 16 14 14 15 16 16 18 20 19 18 19 19 20 21 23 24 22 17 12 12 13 12 10 7 7 14 22 26 26 24 21 19 18 18 17 17 16 14 12 10 8 7 7 7 9 9 10 12 13 11 11 11 10 9 8 7 7 6 5 5 6 6 6 6 8 10 11 11
23 24 24 25 24 23 23 23 22 22 22 22 21 18 14 12 13 15 16 14 13 12 12 13 16 18 16 15 14 16 18 21 21 19 15 13 11 11 11 10 8 10 12 17 23 25 27 27 25 21 19 19 18 17 16 14 12 10 8 7 7 8 9 10 11 13 13 12 12 12 11 9 8 7 6 5 7 8 7 6 7 8 9 9 8
23 24 24 24 25 24 23 22 22 21 21 21 22 21 19 15 12 13 16 16 14 11 10 9 10 14 15 14 12 10 12 15 18 17 15 14 12 10 10 10 8 10 11 10 18 21 24 28 30 27 24 22 20 18 17 16 14 12 9 8 7 7 8 9 11 13 14 14 14 14 12 11 10 8 7 6 8 8 8 9 10 10 10 9 7
23 23 24 24 24 24 23 22 22 22 21 20 20 22 24 23 18 14 14 15 15 14 12 10 9 10 13 14 14 12 11 13 16 16 15 14 12 10 11 12 10 10 10 7 13 19 23 27 29 29 28 26 23 20 19 17 16 14 12 11 9 8 7 7 10 13 14 15 16 16 14 12 11 10 8 8 9 9 11 12 12 13 13 10 8
23 23 23 24 25 25 24 23 23 23 23 22 23 24 26 28 27 23 18 16 15 13 11 11 10 10 11 13 14 14 15 15 15 15 14 14 13 11 11 13 14 13 13 10 7 13 20 25 27 27 27 26 24 23 22 19 17 16 15 14 12 10 8 7 10 14 16 16 17 17 15 13 12 12 11 10 9 10 12 12 13 14 14 11 9
22 22 22 23 25 25 25 25 24 23 23 23 24 26 27 27 28 27 25 21 17 13 12 12 11 10 12 15 15 15 15 16 16 16 15 14 13 13 12 12 14 15 15 15 13 11 13 19 23 24 24 25 25 25 24 23 21 20 18 17 15 13 11 10 12 15 17 18 18 19 18 15 13 13 13 12 11 12 13 12 12 14 14 12 10
21 21 20 21 22 24 25 25 23 22 22 22 23 24 25 25 24 24 25 25 22 19 17 16 14 14 15 16 16 16 16 17 18 18 17 14 14 15 15 14 14 14 15 16 17 16 14 14 17 20 22 24 25 26 26 25 23 21 20 19 17 15 13 12 13 15 17 19 20 20 20 19 16 14 14 12 12 13 14 12 10 12 14 13 10
21 20 18 18 20 22 23 23 22 21 21 21 22 21 21 22 23 21 21 23 23 23 21 21 19 17 15 14 15 17 18 18 19 19 18 16 15 16 17 16 15 14 14 15 16 16 16 17 16 17 20 23 23 24 25 23 21 20 20 19 16 13 11 11 12 14 17 19 20 20 21 22 20 18 15 13 13 14 14 13 11 11 13 14 12
20 19 18 18 18 20 21 21 21 20 20 20 21 20 19 19 21 20 19 20 22 22 21 21 23 21 18 17 18 20 20 18 16 15 15 16 16 16 16 15 13 12 12 12 13 12 13 15 17 17 18 20 21 21 21 20 19 19 18 16 14 12 9 8 9 12 15 17 18 20 22 23 22 21 18 15 14 14 14 14 12 11 13 15 14
21 22 21 19 18 18 19 20 19 19 20 20 20 19 19 18 19 20 19 19 21 21 19 20 23 25 23 22 21 21 21 19 15 12 13 15 15 15 15 13 12 11 10 9 10 9 8 10 12 15 17 18 20 20 19 18 18 17 15 13 13 11 10 9 9 11 13 14 15 16 18 21 22 23 22 18 16 15 15 15 14 12 13 18 18
23 24 23 20 18 16 17 19 19 19 20 21 20 19 18 17 18 20 20 19 20 21 19 18 20 23 24 22 20 20 21 20 17 14 13 13 13 13 14 13 12 11 10 9 9 8 7 6 7 10 12 14 16 18 19 19 19 18 16 14 13 12 11 12 12 12 13 14 13 14 15 17 19 21 22 21 18 16 16 16 16 13 14 19 20
23 24 22 19 16 15 16 18 19 19 20 20 19 19 19 17 18 20 21 21 21 21 20 19 19 20 21 21 19 17 18 19 18 16 14 13 13 13 14 13 13 12 11 10 9 9 8 6 5 6 8 9 11 14 16 18 20 21 20 17 15 13 12 12 12 12 13 14 14 13 14 15 16 19 21 21 19 18 16 17 16 14 13 17 20
22 23 22 20 16 15 16 18 19 19 19 19 19 19 19 18 18 18 18 19 19 20 19 19 19 19 18 17 15 14 14 15 16 15 15 15 16 15 14 14 14 14 13 12 11 10 9 6 4 5 7 8 9 10 12 14 17 20 23 22 18 15 14 13 12 12 12 14 15 15 14 14 15 16 18 18 18 18 17 17 17 16 14 16 19
21 22 22 21 18 16 16 17 17 17 16 16 17 18 18 18 18 18 18 18 19 19 19 19 19 18 17 15 13 13 13 13 14 14 15 16 16 16 15 15 14 15 15 15 14 13 10 6 3 3 5 8 9 10 11 11 12 15 21 25 24 20 17 16 15 15 14 13 14 15 16 16 15 15 15 16 17 17 18 18 18 18 16 16 17
19 20 20 20 19 17 17 16 16 15 15 15 15 16 16 16 17 18 18 19 20 20 20 20 21 20 18 16 14 12 11 11 13 14 15 15 15 15 16 15 14 14 14 15 15 14 10 7 4 2 2 4 7 10 11 11 10 10 14 19 25 26 23 19 17 18 18 17 16 15 15 17 17 16 15 15 16 17 18 18 19 19 18 17 18
17 18 19 19 19 18 17 17 16 16 16 16 16 16 16 16 16 17 17 19 20 20 21 21 22 22 21 19 17 15 13 12 12 14 15 15 15 16 16 15 15 14 14 14 14 12 10 8 6 6 4 2 2 5 8 8 8 8 9 12 18 24 26 23 19 18 18 19 20 19 17 17 18 18 17 16 16 17 18 19 19 20 20 19 19
16 16 17 18 18 17 17 17 17 16 16 17 17 17 17 17 17 17 18 19 19 20 20 21 21 22 21 20 19 18 16 15 13 14 15 15 16 17 17 16 16 16 15 13 11 10 9 9 9 9 8 5 3 3 3 3 5 6 8 9 13 20 25 26 24 22 20 20 21 22 21 18 17 18 19 18 18 17 18 18 19 20 21 21 21
16 16 16 17 17 17 16 16 16 16 17 18 19 18 18 18 18 18 18 18 19 19 20 20 20 20 20 20 20 19 18 17 16 15 15 14 15 16 16 16 16 17 17 15 12 8 6 5 7 9 9 7 5 4 4 5 6 9 11 13 15 18 22 25 25 24 23 22 22 24 25 22 18 16 18 20 19 18 18 18 19 20 21 21 21
16 15 15 16 16 15 14 15 15 16 17 19 19 19 18 18 17 18 18 18 19 19 19 19 20 20 20 20 20 20 20 19 18 17 16 16 16 16 15 15 14 15 16 16 15 13 11 9 5 2 4 6 7 6 6 7 8 11 14 18 20 21 21 22 23 24 25 24 23 23 25 26 22 16 15 18 21 21 19 19 19 19 20 21 21
16 15 14 16 16 15 13 14 15 16 18 19 19 19 18 17 17 17 17 18 19 19 19 20 19 19 19 19 19 19 19 19 18 18 18 17 17 17 16 16 14 13 13 14 14 14 14 14 11 7 3 0 3 5 6 7 8 11 14 17 21 23 24 23 22 21 22 23 23 22 22 25 26 22 18 17 20 22 21 19 19 19 20 21 21
15 15 14 16 17 16 15 15 15 17 18 19 19 18 17 16 16 17 18 18 19 19 19 20 19 19 19 18 18 18 19 18 18 17 17 17 17 17 17 16 15 13 12 12 12 13 14 13 12 11 9 6 2 4 6 7 8 10 12 14 17 21 23 25 24 22 20 21 22 22 22 23 26 27 24 19 17 19 21 20 19 19 20 21 21
14 14 14 15 16 16 16 16 16 16 17 18 18 18 17 16 16 17 17 18 19 19 20 20 20 19 19 19 19 19 19 19 18 18 17 17 17 16 16 16 15 14 13 12 12 12 12 12 11 11 11 10 8 5 4 6 7 8 10 12 13 16 19 22 24 24 23 21 22 24 25 24 25 27 27 23 19 18 20 20 20 20 21 21 22
13 14 14 14 15 16 16 16 16 17 17 17 18 17 16 16 16 16 17 18 18 19 20 20 20 20 20 20 19 19 19 19 19 19 18 17 17 17 16 16 15 15 14 14 13 12 12 12 12 11 11 11 11 11 9 6 4 4 5 7 9 12 14 17 19 21 22 22 21 22 25 26 25 26 27 26 21 18 19 20 21 20 21 21 21
Wind_Direction
8 6 3 359 353 347 343 340 333 320 310 305 303 298 291 288 289 287 282 279 278 277 275 276 283 278 274 275 263 245 253 263 268 277 285 300 303 256 233 225 216 217 222 220 206 213 222 218 212 220 225 219 207 188 179 179 194 212 220 219 214 218 226 230 237 234 212 213 239 245 222 249 297 360 14 28 57 67 53 47 43 38 33 30 28
21 21 19 15 10 5 357 352 348 341 328 315 308 301 294 293 292 289 288 287 283 280 276 274 279 275 264 264 260 246 255 264 265 274 284 296 303 281 245 235 221 216 222 226 226 228 224 221 222 215 206 212 218 213 197 191 201 214 219 224 223 224 228 231 237 235 218 209 218 220 208 230 264 338 19 38 67 72 56 48 42 35 31 27 25
26 25 24 22 20 18 13 6 0 354 348 337 326 315 305 301 298 292 292 293 289 284 279 276 277 273 259 257 258 249 255 262 263 271 284 295 301 289 256 238 225 219 222 228 235 233 223 223 230 232 224 217 218 219 207 194 204 215 217 223 225 227 231 232 235 236 228 217 213 211 211 219 238 292 13 42 68 71 56 45 37 31 28 24 22
28 27 27 25 23 22 21 18 14 7 0 351 340 330 318 307 301 296 294 293 293 293 288 279 274 270 258 254 258 255 254 258 262 270 283 294 298 286 262 246 230 222 222 224 227 225 224 230 237 243 237 218 213 216 213 205 203 206 213 221 221 223 224 220 226 238 235 222 213 214 227 229 224 244 349 33 55 69 60 42 32 27 25 21 19
31 29 27 25 22 22 21 20 19 16 12 5 355 346 333 320 310 303 298 295 292 291 288 279 272 269 262 254 256 257 255 255 261 270 279 287 294 296 283 264 241 225 220 219 219 222 232 242 247 247 223 206 207 215 217 213 210 208 207 206 196 202 205 200 206 223 230 216 204 207 220 224 225 237 289 15 12 56 70 46 33 26 23 20 15
32 29 25 21 19 19 18 16 15 13 13 12 7 360 350 336 323 311 303 297 290 285 283 279 272 270 266 256 252 254 253 252 258 267 274 278 287 299 295 271 247 232 224 222 224 229 237 244 249 250 225 207 208 217 222 218 217 218 207 195 186 190 192 192 199 208 207 201 195 199 211 216 224 235 241 26 352 352 19 24 34 37 30 24 12
33 30 23 17 14 13 14 12 10 7 7 8 8 5 359 350 336 322 310 298 290 283 280 278 274 272 267 256 248 248 250 248 252 260 266 271 280 294 295 273 248 235 229 226 229 233 238 242 242 240 229 217 214 217 225 221 215 214 207 200 198 195 192 192 200 205 201 197 198 202 209 215 225 241 232 67 286 281 304 340 6 30 34 30 13
26 25 21 15 11 10 9 6 3 2 360 359 2 3 2 358 349 336 321 305 292 285 279 276 274 272 267 255 244 240 244 245 246 253 259 264 273 285 291 278 252 239 236 234 234 233 234 235 236 234 225 221 219 218 222 223 213 210 210 208 204 200 200 200 202 205 204 201 204 208 213 215 219 227 220 227 254 259 277 308 319 360 20 21 11
19 17 16 12 7 6 6 1 358 359 357 353 356 359 359 359 356 349 339 325 308 293 285 281 277 272 265 254 241 234 235 239 242 250 256 261 268 277 285 282 261 243 239 238 239 242 243 240 237 233 227 221 218 215 217 221 216 211 212 209 207 207 206 206 208 211 210 207 206 209 215 214 213 222 232 245 263 266 273 281 274 293 347 358 356
19 17 16 13 8 5 5 2 359 359 357 352 351 356 357 356 357 355 350 344 336 321 307 296 285 276 269 260 246 232 231 238 242 247 254 258 263 271 281 284 269 251 243 239 240 244 247 247 241 235 231 226 221 216 214 216 215 212 207 202 204 208 207 206 210 214 216 213 209 212 219 215 215 233 263 263 256 257 264 262 254 267 316 335 333
18 17 17 19 18 15 12 7 1 360 0 356 351 354 357 358 359 359 357 353 350 345 335 318 297 285 280 273 258 239 231 240 245 246 251 256 260 268 278 282 274 261 253 247 247 249 251 255 254 243 232 226 225 221 215 213 213 213 207 194 194 201 205 208 210 211 214 215 214 221 232 229 221 232 268 260 240 245 259 251 242 263 304 321 317
13 14 17 20 18 15 10 3 356 354 358 359 355 354 358 1 1 1 1 359 355 352 348 338 317 297 286 277 262 242 228 234 248 249 250 254 259 269 277 279 276 268 259 254 254 259 260 257 255 245 233 227 226 224 220 218 217 216 214 207 196 197 202 210 215 217 218 220 222 231 240 238 229 237 263 261 239 239 253 246 245 268 301 318 313
9 10 11 9 5 3 0 356 351 347 349 353 353 353 356 358 357 356 357 359 358 356 353 349 336 313 295 281 260 241 227 226 239 247 251 256 261 269 277 279 278 271 260 256 256 258 256 244 233 240 237 230 227 225 222 221 222 221 221 219 216 214 212 217 226 231 231 232 237 246 250 242 239 247 258 257 246 249 262 260 254 261 286 310 312
4 6 2 357 353 350 348 347 346 342 338 340 344 347 349 350 350 350 351 354 356 356 354 351 349 337 311 287 264 250 242 233 228 235 248 258 262 269 276 278 278 271 259 255 256 258 255 246 251 268 248 236 232 228 224 223 224 225 226 226 226 228 228 228 233 236 237 238 241 250 251 241 241 246 245 244 249 260 281 279 259 250 269 293 301
354 360 1 356 349 343 338 339 342 341 336 337 340 345 347 348 348 347 347 351 354 354 352 348 347 347 325 288 264 260 259 250 233 229 239 252 261 267 273 277 277 270 258 253 255 259 261 261 265 274 260 236 233 231 225 223 225 227 230 232 234 236 237 235 234 235 236 237 239 243 241 234 236 239 236 240 248 259 284 285 256 245 260 276 293
348 355 360 359 352 344 338 338 341 343 344 344 345 348 350 351 349 346 344 350 355 354 354 350 346 345 342 319 280 266 265 259 244 231 230 241 254 263 268 273 277 270 256 252 254 257 259 264 268 270 267 243 231 231 226 220 219 222 228 234 237 240 241 239 236 232 230 232 234 234 234 233 234 231 230 241 249 257 277 272 242 244 252 247 266
350 353 355 355 352 348 343 340 339 340 345 350 351 351 350 350 350 348 346 352 359 360 359 357 352 346 344 342 334 310 278 262 252 241 232 233 241 252 261 268 275 274 260 250 252 257 257 262 271 271 268 261 245 234 228 220 212 209 217 228 233 235 237 237 234 230 227 229 232 233 235 236 234 230 231 240 246 254 271 263 240 240 233 220 235
353 352 350 348 346 344 341 339 335 333 339 348 352 353 351 350 352 356 356 354 359 4 4 2 359 352 343 339 340 342 331 289 264 251 242 237 236 242 253 263 270 272 264 251 248 255 260 261 268 272 267 259 250 238 232 233 221 200 198 212 220 223 225 227 229 229 227 227 229 231 234 235 235 235 236 240 244 251 266 265 238 221 208 204 219
352 348 343 339 337 336 334 332 331 330 334 341 346 349 351 350 353 0 4 356 357 4 3 1 1 358 351 343 336 337 350 348 311 267 246 241 241 239 241 252 262 265 261 254 247 249 256 258 259 261 255 244 241 239 236 240 237 211 195 198 205 212 214 216 221 225 227 228 229 231 234 234 235 238 241 243 246 252 262 259 229 209 205 208 223
347 344 341 338 335 332 330 329 329 332 335 335 336 342 348 350 352 358 2 355 353 357 357 356 358 1 1 356 345 335 342 354 349 326 270 244 240 240 237 240 252 260 259 254 249 245 248 253 252 245 235 229 233 239 239 241 243 226 204 191 186 195 206 212 215 217 221 226 229 232 235 236 237 240 244 247 249 252 255 243 217 210 214 228 244
344 346 348 348 343 336 331 328 326 328 333 334 333 336 345 353 357 359 2 1 356 353 353 354 356 2 9 7 0 355 353 351 348 342 320 265 233 232 239 236 239 253 259 254 250 247 244 248 250 236 221 218 227 238 243 243 242 227 202 179 165 168 183 201 208 211 214 219 226 231 233 236 239 241 245 250 251 248 238 219 209 213 219 233 251
345 345 346 347 347 344 339 333 328 328 332 338 339 336 339 349 355 357 0 5 6 360 356 357 357 358 5 8 5 5 4 356 343 334 333 319 247 223 235 239 233 240 252 252 248 245 241 243 241 221 209 209 220 236 246 246 241 224 202 183 167 156 151 177 194 202 206 209 216 223 227 231 235 237 241 244 243 234 221 212 210 215 221 223 225
343 342 341 344 348 350 348 344 337 334 337 343 346 341 337 340 347 351 353 357 2 2 360 1 1 356 355 358 2 4 5 3 356 340 333 335 316 238 232 237 229 226 238 248 250 245 239 234 222 206 195 191 219 233 241 247 244 224 207 193 172 150 132 158 179 181 184 193 201 207 213 219 223 226 229 231 230 223 215 213 214 220 232 229 211
340 340 341 343 347 350 351 348 342 340 342 342 343 343 343 342 343 346 347 349 353 357 357 358 359 358 353 350 353 357 1 4 2 353 337 335 335 307 248 238 227 218 225 236 243 243 235 223 212 206 198 192 247 227 226 236 239 226 213 201 186 165 150 163 173 165 159 165 176 186 193 197 202 208 212 215 218 217 211 210 214 221 234 232 217
341 339 341 343 345 347 347 343 339 338 339 338 338 342 345 345 344 343 342 344 348 352 354 354 355 356 353 348 347 348 351 358 360 355 347 336 335 336 309 260 231 217 220 227 232 237 233 220 214 215 215 223 235 224 207 219 228 225 216 206 197 185 169 174 187 181 161 151 152 161 168 166 163 170 189 205 214 217 213 213 219 229 236 231 220
342 341 342 343 344 345 343 340 339 334 328 327 330 335 339 340 340 340 340 341 345 351 355 355 351 350 349 347 346 345 345 350 355 353 349 342 330 333 334 297 236 217 218 223 227 232 230 220 217 220 222 225 230 228 214 192 208 222 220 213 206 199 190 191 201 204 188 166 162 163 159 159 162 159 162 184 203 210 214 223 233 240 238 228 220
344 341 342 344 344 344 343 341 340 336 331 328 326 328 331 333 335 339 341 342 344 349 356 359 354 353 354 350 346 345 345 347 351 350 348 350 346 338 343 332 250 221 218 221 226 230 228 222 221 221 219 219 221 223 216 202 203 220 221 219 216 210 208 206 204 205 202 188 182 180 171 175 189 188 172 167 180 194 215 242 247 237 227 221 222
345 341 342 344 344 343 343 342 340 338 338 337 334 332 332 332 335 342 348 348 347 348 357 6 3 1 4 1 351 347 346 347 350 349 345 351 357 350 344 344 303 237 227 225 227 227 224 221 221 219 216 215 215 215 215 210 207 213 218 222 222 219 220 216 206 203 204 198 197 200 197 192 196 201 201 203 207 223 263 285 263 230 220 219 224
346 342 343 345 344 344 343 341 339 338 336 336 336 335 336 336 335 336 340 343 346 348 354 4 7 5 7 7 1 355 352 351 349 346 342 343 351 352 348 346 333 280 247 233 227 224 219 217 219 219 216 216 214 213 216 217 214 212 216 219 221 224 229 225 211 206 207 207 207 210 211 203 199 205 214 221 230 250 275 277 243 214 209 212 218
347 344 343 344 344 344 343 340 339 338 335 334 333 330 329 330 330 329 327 325 330 338 342 352 3 6 4 3 2 1 1 358 348 339 335 334 334 341 349 349 337 315 283 243 225 226 225 222 223 226 222 220 220 218 219 223 224 223 225 225 223 227 235 233 220 211 211 209 206 209 213 214 215 224 231 236 246 257 260 240 207 192 189 192 199
348 346 346 345 345 345 345 343 341 340 338 337 336 333 327 322 318 323 328 325 322 324 325 328 348 0 359 353 345 336 341 349 346 338 333 331 330 334 341 344 346 339 317 249 216 224 233 228 226 229 230 229 229 227 224 227 231 232 233 234 234 233 235 236 228 220 217 212 207 208 215 220 225 235 244 252 262 258 232 203 185 172 164 160 157
349 350 349 348 348 349 349 348 347 347 347 346 346 344 339 335 332 327 326 328 328 328 327 320 321 338 351 353 348 340 337 345 352 350 342 337 338 341 341 345 355 355 333 274 218 223 237 235 230 230 232 234 234 231 229 231 234 236 239 243 246 248 249 246 234 227 225 220 214 214 216 218 223 233 242 254 261 244 214 196 182 168 161 152 137
352 353 353 353 353 353 355 358 358 358 360 0 359 357 355 353 352 346 335 327 326 333 343 341 328 324 338 351 356 359 357 356 357 358 354 350 349 347 349 354 357 355 345 330 280 245 243 241 236 233 234 237 238 238 236 233 233 237 243 248 254 260 265 257 238 231 231 228 223 222 220 217 218 225 234 249 254 233 213 201 186 174 169 164 157
355 357 358 359 360 2 7 10 6 3 6 8 7 5 5 5 4 1 356 349 340 336 344 348 339 334 344 353 359 360 358 357 359 1 3 3 357 352 356 3 1 357 354 348 337 313 276 254 243 237 236 238 238 239 240 239 239 242 246 249 255 262 265 256 240 232 232 232 229 227 225 220 218 220 227 241 245 225 209 203 197 189 182 177 177
359 1 2 3 6 11 15 15 11 7 8 11 12 10 8 7 9 10 11 10 7 2 357 356 357 359 359 359 2 2 358 357 358 359 1 4 3 360 3 11 12 6 0 353 344 337 322 290 261 248 246 244 241 239 241 243 244 246 247 249 255 260 259 252 241 232 231 232 232 230 228 225 222 220 224 236 242 226 209 203 208 208 198 191 190
2 1 2 5 11 16 17 15 13 12 11 12 13 11 9 8 9 11 13 15 16 17 13 9 9 9 3 359 0 1 1 1 359 357 357 360 2 3 5 11 16 15 9 0 351 341 331 316 293 271 260 255 250 247 248 249 250 250 249 249 250 249 245 244 239 231 228 230 231 230 228 226 225 222 222 230 240 234 216 205 214 226 216 203 201
7 6 7 11 15 18 17 15 14 14 12 12 11 9 7 7 9 11 14 13 10 13 16 13 8 7 4 1 360 360 0 1 356 349 349 354 359 2 4 7 10 10 8 4 358 348 337 325 312 296 281 269 259 254 254 254 252 249 246 243 237 231 230 237 238 230 228 229 229 229 228 226 225 224 223 224 231 232 220 207 212 229 225 211 209
15 15 14 14 16 18 17 15 15 15 13 12 12 8 5 5 6 10 16 13 5 6 13 13 9 8 9 6 2 359 358 356 349 341 344 351 353 356 360 1 359 355 351 350 349 344 340 334 323 312 300 285 271 264 261 259 254 247 237 228 225 227 230 233 232 228 226 226 226 227 228 226 224 224 224 224 226 229 223 211 210 222 223 212 209
18 17 13 11 14 18 19 16 16 15 13 13 13 9 5 4 2 3 10 13 6 4 12 15 10 10 12 8 0 355 356 359 1 359 358 357 355 355 356 355 352 349 343 338 334 329 326 335 337 327 316 303 288 276 268 263 260 254 238 221 219 227 234 235 232 229 225 224 224 225 226 226 223 222 223 225 226 228 225 215 211 219 221 213 208
18 17 13 11 15 20 21 19 17 16 14 13 12 9 7 6 1 358 3 8 5 2 9 13 11 11 13 10 3 359 360 4 8 10 6 0 357 356 353 348 345 344 340 335 331 324 319 325 340 337 328 320 308 294 281 268 260 254 244 232 223 223 225 227 228 230 229 227 226 225 226 227 224 221 222 225 226 228 226 219 215 218 221 215 210
16 17 14 14 17 21 22 20 18 17 15 12 11 10 7 6 4 360 358 2 2 0 2 5 6 9 12 11 11 15 15 10 9 9 8 5 2 358 355 350 344 338 334 329 325 321 318 319 325 332 334 332 326 316 302 284 265 251 242 236 231 228 228 225 223 229 234 234 233 231 229 229 228 225 224 225 225 225 225 222 219 220 220 217 214
15 15 14 16 18 19 21 19 16 15 14 12 13 14 12 11 13 11 6 4 5 4 4 3 4 7 10 9 14 22 21 14 13 15 14 12 9 6 2 358 350 341 335 329 321 316 315 316 316 329 343 344 341 334 321 303 282 259 243 235 232 234 238 235 228 228 232 236 238 237 234 233 234 234 230 227 226 224 223 221 220 220 221 220 217
13 12 13 17 19 19 19 19 17 16 16 16 17 16 15 17 21 21 17 16 13 10 9 8 6 7 10 12 14 20 21 18 23 27 25 21 19 15 10 5 357 347 337 330 325 320 313 307 293 277 308 345 349 344 335 317 296 273 250 236 231 231 236 239 237 233 233 234 239 242 241 238 238 238 235 231 228 225 223 220 219 220 221 221 218
13 12 13 18 21 20 19 19 22 24 25 25 24 20 16 18 22 23 23 23 21 17 16 14 11 10 11 11 12 16 17 14 19 26 28 29 29 25 19 12 7 358 345 335 331 326 316 301 280 265 259 270 328 340 338 327 306 282 259 238 229 227 230 236 241 241 239 236 236 240 243 242 238 237 237 234 230 227 224 220 219 219 221 221 218
13 12 13 17 20 21 21 22 25 28 29 29 28 25 20 19 22 23 24 25 25 23 20 18 16 15 14 14 15 16 15 11 11 14 19 23 28 28 25 22 20 17 8 354 341 330 320 306 289 276 269 265 272 293 305 307 292 272 253 238 230 228 230 236 242 246 246 242 238 238 242 243 240 238 238 236 234 230 226 222 220 219 220 221 220
14 13 15 17 18 20 22 23 25 29 32 31 29 25 23 23 24 24 24 26 27 26 24 21 19 18 19 20 21 21 19 18 16 13 10 12 17 21 23 25 27 29 26 18 11 8 3 338 303 283 274 269 270 271 260 247 242 235 226 222 225 229 233 238 244 249 251 249 245 242 241 239 238 239 239 238 237 235 231 226 223 220 220 222 222
14 14 18 20 21 22 23 23 24 30 33 32 27 23 22 24 26 26 24 24 26 26 26 24 21 20 21 21 23 23 22 21 20 19 16 12 11 10 11 15 21 27 28 23 20 26 38 44 35 333 274 266 268 268 259 250 243 233 224 221 224 229 234 238 244 249 250 249 248 245 238 233 233 238 241 238 236 235 233 230 227 224 222 223 224
13 14 18 20 21 23 23 22 24 29 32 31 26 21 18 20 25 26 26 25 24 23 24 24 23 23 23 22 22 23 21 19 19 21 20 17 13 10 7 5 7 14 19 19 18 24 33 39 41 44 51 205 238 242 244 246 244 238 231 228 228 229 230 231 237 245 247 245 244 242 235 229 230 235 240 239 236 234 234 232 230 227 225 224 224
11 13 16 18 18 20 23 23 24 26 29 29 24 19 15 16 21 25 26 25 23 21 21 23 23 23 24 24 23 23 21 18 18 20 20 18 17 15 12 9 8 7 8 11 15 20 25 26 26 27 31 37 77 159 180 196 211 218 221 224 228 231 232 233 237 245 249 245 240 237 233 230 230 234 237 237 234 233 234 234 232 230 228 226 225
9 12 16 17 16 17 20 21 20 22 25 26 21 16 13 14 19 22 23 22 21 20 19 20 20 21 22 23 23 23 22 20 19 19 20 20 19 18 16 15 15 13 13 15 17 18 18 16 16 19 21 19 19 43 111 150 176 192 198 203 213 223 230 234 239 244 248 247 241 236 234 234 235 235 233 231 230 231 232 233 234 232 230 228 227
6 12 15 15 14 14 15 16 16 16 18 19 17 13 10 13 18 20 19 18 17 17 16 16 17 18 18 19 20 20 20 21 20 20 20 21 21 19 18 17 17 16 16 19 22 24 24 20 16 18 22 19 12 13 31 63 111 162 183 195 209 219 225 229 232 236 240 243 243 238 234 233 234 234 230 226 226 229 231 232 233 234 233 232 231